Regional Weather Roundup
Issued by NWS Sioux Falls, SD

Home | Current Version | Previous Version | Text Only | Print | Product List | Glossary On
Versions: 1 2 3 4 5 6 7 8 9 10 11 12 13 14 15 16 17 18 19 20 21 22 23 24 25 26 27 28 29 30 31 32 33 34 35 36 37 38 39 40 41 42 43 44 45 46 47 48 49 50
000
ASUS43 KFSD 280202
RWRFSD

WEATHER ROUNDUP FOR SE SOUTH DAKOTA/SW MINNESOTA/NW IOWA
NATIONAL WEATHER SERVICE SIOUX FALLS SD
900 PM CDT WED MAY 27 2015

NOTE: "FAIR" INDICATES FEW OR NO CLOUDS BELOW 12,000 FEET WITH NO
SIGNIFICANT WEATHER AND OR OBSTRUCTIONS TO VISIBILITY.


SDZ038>040-050-052>070-280300-
SOUTHEAST SOUTH DAKOTA

CITY           SKY/WX    TMP DP  RH WIND       PRES   REMARKS
BROOKINGS      PTCLDY    73  50  43 S5        30.01R
CHAMBERLAIN    CLOUDY    67  53  61 SE6       29.95S
HURON            N/A    N/A N/A N/A MISG      29.96R
MADISON        FAIR      73  52  46 SW5       30.01R
MITCHELL       CLOUDY    74  55  51 S7        29.97S
SIOUX FALLS    PTCLDY    71  50  47 S7        30.00R
WINNER         FAIR      74  51  44 S14       29.95S
YANKTON        MOCLDY    75  46  35 S7        29.98R
$$

MNZ071-072-080-081-089-090-097-098-280300-
SOUTHWEST MINNESOTA

CITY           SKY/WX    TMP DP  RH WIND       PRES   REMARKS
FAIRMONT       PTCLDY    73  54  49 S5        30.01R
JACKSON        MOCLDY    75  52  43 S3        30.02R
LUVERNE        PTCLDY    72  52  49 SW3       30.01R
MARSHALL       PTCLDY    79  46  31 S6        29.98R
MONTEVIDEO     PTCLDY    75  46  35 CALM      29.98R
PIPESTONE      PTCLDY    72  52  49 SW6       30.02R
REDWOOD FALLS  PTCLDY    77  51  40 CALM      29.98R
TRACY          CLEAR     72  53  50 S5        30.00R
WINDOM         PTCLDY    73  52  46 CALM      30.01R
WORTHINGTON    PTCLDY    73  48  40 SW7       30.02R
$$

IAZ001>003-012>014-020>022-031-032-NEZ013-014-SDZ071-280300-
NORTHWEST IOWA

CITY           SKY/WX    TMP DP  RH WIND       PRES   REMARKS
DENISON        MOCLDY    70  61  73 S6        30.02R
ESTHERVILLE    CLOUDY    73  56  54 SW5       30.01R
SIOUX CITY     MOCLDY    74  53  48 S7        30.01R
SPENCER        CLEAR     72  55  55 S6        30.02R
$$

ABBREVIATIONS USED IN REMARKS
   TC - TEMPERATURE IN CELSIUS
  WCI - WIND CHILL INDEX
   HX - HEAT INDEX
  VSB - VISIBILITY



USA.gov is the U.S. government's official web portal to all federal, state and local government web resources and services.